星链-3907 (STARLINK-3907 )

导读 | 星芒AI

STARLINK-3907 是由 SpaceX 开发并发射的星链(Starlink)卫星之一,属于其低轨卫星互联网星座的一部分。该卫星旨在为全球用户提供高速、低延迟的宽带互联网服务,尤其服务于传统网络难以覆盖的地区。它采用先进的推进和通信技术,具备自动避障能力,以确保在轨安全运行。STARLINK-3907 的发射进一步扩大了星链网络的覆盖范围,助力实现全球互联网接入的愿景。

基本信息
目录编号:
52501
目录名称:
STARLINK-3907
国际标识:
2022-049BC
轨道中心:
EARTH
卫星名称:
星链-3907
卫星全名:
星链-3907 (STARLINK-3907 )
卫星状态:
在轨 (已飞行1279 天)
发射日期:
2022-05-06 UTC
国别 :
美国 (US)
星等 :
--
轨道信息
数据来源 国际轨道数据
星历时间: 2025-11-04T09:37:03+0800
22小时前
查看轨道信息
半长轴: 6917.978km
偏心率: 0.0001577
轨道倾角: 53.217°
近地点辐角 103.522°
升交点赤经 252.854°
平近点角 256.595°
近地点: 538.752km
远地点: 540.934km
周期: 95.440分钟
每日圈数: 15.088081
详细信息
固有亮度:
5
最大亮度:
2.5
卫星平台:
Starlink v1.5
覆盖范围:
全球
运营商:
太空探索技术公司
运营商所在国:
美国
制造商(研发单位):
太空探索技术公司
制造商所在国:
美国
使用方式:
暂无
卫星简介
星链(Starlink)计划是由太空探索技术公司(SpaceX)提出的一个巨型低轨卫星互联网星座项目,计划在2019年至2024年间在太空搭建由约1.2万颗卫星组成的“星链”网络,其中1584颗将部署在地球上空550千米处的近地轨道,并从2020年开始工作。该卫星仍在工作。
2D轨道图
3D轨道图
轨道高度分析图
轨道倾角分析图
轨道综合分析图
查看轨道综合分析图